map of EGC home
EGC - Airport
Location
City:  Bergerac, Aquitaine, France
Name:Roumaniere
ICAO:LFBE
IATA:EGC

Details
Type:Airport (Aerodrome, Airfield)
Use:Public/Civil
Latitude:4449'28"N (44.824431)
Longitude:031'14"E (0.520525)
Elevation:171 ft (52 m)
Variation:0.14E (WMM2015 magnetic declination)
0.12 annual change
Runways:2
Longest:7234 × 148 ft (2205 × 45 m)

Time
Time Zone:UTC+1 (DST+2)
Local Time:

Weather
METAR:LFBE 302000Z AUTO 15002KT CAVOK 19/15 Q1012 TEMPO 3000 TSRA BKN005 BKN020CB
TAF:LFBE 301100Z 3012/0112 14010KT 9999 SCT020
TEMPO 3018/3021 4000 -SHRA SCT040TCU PROB30
TEMPO 3021/0106 3000 TSRA BKN005 BKN020CB
BECMG 0109/0111 29010KT SCT020 BKN070

Related Locations
Nearby:
Farthest:CHT: 12273 mi / 19752 km
Waitangi [Tuuta], Chatham Islands, NZ

Find:

   beyond  
but within

Other Information
Maps:
NOTAMs:
Links:
Sources:

  
flag of France
flag of Aquitaine
  

Sectional Chart

Flight Planning
at skyvector.com

Satellite Image

Google Maps Satellite view

 

Copyright © 2004-2016 Karl L. Swartz. All rights reserved.
The Great Circle Mapper name and logo are trademarks of the Great Circle Mapper.
All other trademarks mentioned herein belong to their respective owners.
Please see credits for attibutions and further copyright information.

  Follow gcmap on Facebook Follow gcmap on Twitter Follow gcmap on Google+ GCmap on LinkedIn

hCard Microformat

Geo Microformat